TimeCST,TemperatureF,Dew PointF,Humidity,Sea Level PressureIn,VisibilityMPH,Wind Direction,Wind SpeedMPH,Gust SpeedMPH,PrecipitationIn,Events,Conditions,WindDirDegrees,DateUTC
12:15 AM,32.4,32.4,100,29.63,4.0,WNW,9.2,-,N/A,,Overcast,290,2013-02-28 06:15:00
12:55 AM,32.2,32.4,100,29.64,3.0,WNW,8.1,-,N/A,,Overcast,290,2013-02-28 06:55:00
1:15 AM,32.2,32.4,100,29.65,3.0,WNW,8.1,-,N/A,,Overcast,290,2013-02-28 07:15:00
1:35 AM,32.2,32.4,100,29.65,5.0,WNW,9.2,-,N/A,,Overcast,290,2013-02-28 07:35:00
1:55 AM,32.5,32.5,100,29.65,5.0,WNW,9.2,-,N/A,,Overcast,300,2013-02-28 07:55:00
2:15 AM,32.5,32.5,100,29.65,7.0,NW,6.9,-,N/A,,Overcast,310,2013-02-28 08:15:00
2:35 AM,32.5,32.5,100,29.65,4.0,WNW,6.9,-,N/A,,Overcast,300,2013-02-28 08:35:00
2:55 AM,32.4,32.5,100,29.66,4.0,WNW,6.9,-,N/A,,Overcast,300,2013-02-28 08:55:00
3:15 AM,32.4,32.5,100,29.66,3.0,NW,6.9,-,N/A,,Overcast,310,2013-02-28 09:15:00
3:35 AM,32.2,32.4,100,29.67,4.0,NW,6.9,-,N/A,,Overcast,310,2013-02-28 09:35:00
3:55 AM,32.2,32.2,100,29.68,3.0,NW,5.8,-,N/A,,Overcast,310,2013-02-28 09:55:00
4:15 AM,32.0,32.2,100,29.69,4.0,NW,5.8,-,N/A,,Overcast,310,2013-02-28 10:15:00
4:35 AM,32.2,32.2,100,29.69,4.0,NW,6.9,-,N/A,,Overcast,310,2013-02-28 10:35:00
4:55 AM,32.2,32.2,100,29.70,4.0,NW,6.9,-,N/A,,Overcast,310,2013-02-28 10:55:00
5:15 AM,32.2,32.4,100,29.71,7.0,NW,5.8,-,N/A,,Overcast,320,2013-02-28 11:15:00
5:35 AM,32.4,32.5,100,29.71,4.0,NNW,6.9,-,N/A,,Overcast,330,2013-02-28 11:35:00
6:15 AM,32.5,32.7,100,29.73,10.0,NW,9.2,-,N/A,,Overcast,320,2013-02-28 12:15:00
6:35 AM,-9999,-9999,N/A,29.73,7.0,NW,9.2,-,N/A,,Overcast,320,2013-02-28 12:35:00
6:55 AM,-9999,-9999,N/A,29.74,10.0,NNW,9.2,-,N/A,,Overcast,330,2013-02-28 12:55:00
7:15 AM,32.9,32.9,100,29.75,10.0,NW,8.1,-,N/A,,Overcast,320,2013-02-28 13:15:00
7:35 AM,32.9,33.1,100,29.76,10.0,NW,10.4,-,N/A,,Overcast,320,2013-02-28 13:35:00
7:55 AM,32.9,33.1,100,29.77,10.0,NW,8.1,-,N/A,,Overcast,320,2013-02-28 13:55:00
8:15 AM,33.1,33.3,100,29.78,10.0,NNW,9.2,-,N/A,,Overcast,330,2013-02-28 14:15:00
8:35 AM,33.3,33.4,100,29.79,10.0,NNW,9.2,-,N/A,,Overcast,330,2013-02-28 14:35:00
9:15 AM,34.0,33.8,99,29.79,10.0,NNW,8.1,-,N/A,,Overcast,330,2013-02-28 15:15:00
9:35 AM,34.3,33.6,97,29.80,10.0,NNW,9.2,-,N/A,,Overcast,330,2013-02-28 15:35:00
9:55 AM,35.1,33.8,95,29.81,10.0,NNW,10.4,-,N/A,,Overcast,330,2013-02-28 15:55:00
10:15 AM,35.6,33.8,93,29.82,10.0,NNW,11.5,-,N/A,,Overcast,340,2013-02-28 16:15:00
10:35 AM,35.6,33.4,92,29.82,10.0,NNW,11.5,-,N/A,,Overcast,340,2013-02-28 16:35:00
10:55 AM,36.3,34.3,93,29.83,10.0,North,17.3,-,N/A,,Overcast,350,2013-02-28 16:55:00
11:15 AM,37.2,35.4,93,29.84,10.0,North,12.7,-,N/A,,Overcast,350,2013-02-28 17:15:00
11:35 AM,37.4,35.6,93,29.84,10.0,NNW,15.0,-,N/A,,Overcast,340,2013-02-28 17:35:00
11:55 AM,37.2,35.4,93,29.84,7.0,North,13.8,20.7,N/A,,Overcast,350,2013-02-28 17:55:00
12:15 PM,36.9,34.9,93,29.84,10.0,NNW,16.1,19.6,N/A,,Overcast,340,2013-02-28 18:15:00
12:35 PM,37.0,34.9,92,29.84,10.0,NNW,17.3,-,N/A,,Overcast,340,2013-02-28 18:35:00
12:55 PM,37.4,34.2,88,29.84,10.0,NNW,16.1,-,N/A,,Overcast,330,2013-02-28 18:55:00
1:15 PM,36.7,33.8,89,29.85,10.0,North,17.3,-,N/A,,Overcast,350,2013-02-28 19:15:00
1:35 PM,37.2,34.0,88,29.85,10.0,North,18.4,-,N/A,,Overcast,350,2013-02-28 19:35:00
1:55 PM,36.3,33.8,91,29.86,10.0,North,18.4,21.9,N/A,,Overcast,360,2013-02-28 19:55:00
2:15 PM,36.0,33.6,91,29.87,10.0,NNW,20.7,26.5,N/A,,Overcast,340,2013-02-28 20:15:00
2:35 PM,36.0,33.4,91,29.87,10.0,North,19.6,-,N/A,,Overcast,350,2013-02-28 20:35:00
2:55 PM,36.3,32.7,87,29.88,10.0,North,18.4,25.3,N/A,,Overcast,350,2013-02-28 20:55:00
3:15 PM,35.4,32.0,87,29.89,10.0,North,17.3,-,N/A,,Overcast,350,2013-02-28 21:15:00
3:35 PM,35.1,32.0,89,29.90,10.0,North,15.0,24.2,N/A,,Overcast,350,2013-02-28 21:35:00
4:15 PM,33.3,32.0,95,29.92,3.0,NNW,16.1,-,N/A,,Overcast,340,2013-02-28 22:15:00
4:35 PM,32.4,32.0,99,29.93,1.0,NNW,15.0,-,N/A,,Overcast,340,2013-02-28 22:35:00
4:55 PM,32.2,32.0,99,29.94,3.0,NNW,12.7,-,N/A,,Overcast,330,2013-02-28 22:55:00
5:15 PM,32.2,32.0,99,29.95,1.2,NNW,15.0,-,N/A,,Overcast,340,2013-02-28 23:15:00
5:35 PM,32.0,32.0,100,29.96,5.0,NNW,16.1,23.0,N/A,,Overcast,340,2013-02-28 23:35:00
5:55 PM,32.0,31.6,99,29.96,5.0,NNW,16.1,-,N/A,,Overcast,340,2013-02-28 23:55:00
6:15 PM,32.0,31.5,98,29.97,10.0,NNW,12.7,-,N/A,,Overcast,340,2013-03-01 00:15:00
6:35 PM,32.0,31.1,96,29.98,10.0,NNW,17.3,-,N/A,,Overcast,330,2013-03-01 00:35:00
6:55 PM,32.0,30.6,94,29.98,10.0,NNW,12.7,-,N/A,,Overcast,330,2013-03-01 00:55:00
7:15 PM,32.0,30.2,93,29.99,10.0,NNW,13.8,-,N/A,,Overcast,330,2013-03-01 01:15:00
7:35 PM,32.0,30.0,92,29.99,10.0,NNW,15.0,20.7,N/A,,Overcast,330,2013-03-01 01:35:00
7:55 PM,32.0,29.8,92,29.98,10.0,NNW,16.1,-,N/A,,Overcast,340,2013-03-01 01:55:00
8:15 PM,32.0,29.8,92,29.98,10.0,NNW,12.7,20.7,N/A,,Overcast,330,2013-03-01 02:15:00
8:35 PM,31.8,30.0,93,29.98,10.0,NNW,15.0,-,N/A,,Overcast,330,2013-03-01 02:35:00
8:55 PM,31.5,30.4,96,29.98,7.0,NNW,12.7,-,N/A,,Overcast,330,2013-03-01 02:55:00
9:15 PM,31.6,30.7,96,29.98,7.0,NNW,11.5,-,N/A,,Overcast,340,2013-03-01 03:15:00
9:35 PM,31.6,30.6,96,29.98,10.0,North,12.7,18.4,N/A,,Overcast,350,2013-03-01 03:35:00
9:55 PM,31.5,30.7,97,29.98,5.0,North,9.2,-,N/A,,Overcast,350,2013-03-01 03:55:00
10:15 PM,31.3,30.6,97,29.99,10.0,NNW,11.5,-,N/A,,Overcast,340,2013-03-01 04:15:00
10:35 PM,31.5,30.2,95,29.98,10.0,NNW,10.4,-,N/A,,Overcast,340,2013-03-01 04:35:00
10:55 PM,31.3,30.2,96,29.99,10.0,NW,5.8,-,N/A,,Overcast,320,2013-03-01 04:55:00
11:15 PM,31.3,30.4,96,29.99,10.0,NW,5.8,-,N/A,,Overcast,320,2013-03-01 05:15:00
11:35 PM,31.1,30.2,96,29.99,10.0,North,9.2,-,N/A,,Overcast,360,2013-03-01 05:35:00
11:55 PM,31.1,29.1,92,29.98,10.0,North,9.2,-,N/A,,Overcast,360,2013-03-01 05:55:00